DAL324 KBOS-KSEA

Flight info

Callsign DAL324
Flight time 5h 34m
Altitude 32000
Route HYLND7 HYLND SYR Q812 NOSIK/N0466F340 Q812 ZOHAN IYGUR KP06G KP12Y GTF MLP GLASR3
Aircraft A21N/M-SDE2E3FGHIRWXY/LB1

Departure

Time 2026-05-07 12:51
Airport Boston Logan International Airport (KBOS)

Arrival

Time 2026-05-07 18:25
Airport Seattle–Tacoma International Airport (KSEA)
Time Latitude Longitude Altitude Speed Heading
2026-05-07 12:20 42.36353 -71.02167 30 ft 0 kts 38°
2026-05-07 12:37 42.36342 -71.02179 30 ft 2 kts 38°
2026-05-07 12:37 42.36320 -71.02196 29 ft 4 kts 14°
2026-05-07 12:37 42.36296 -71.02195 29 ft 5 kts 330°
2026-05-07 12:38 42.36280 -71.02174 29 ft 2 kts 301°
2026-05-07 12:42 42.36289 -71.02195 29 ft 5 kts 300°
2026-05-07 12:42 42.36309 -71.02240 29 ft 0 kts 300°
2026-05-07 12:43 42.36312 -71.02248 29 ft 3 kts 296°
2026-05-07 12:43 42.36292 -71.02292 29 ft 8 kts 233°
2026-05-07 12:44 42.36229 -71.02312 29 ft 12 kts 178°
2026-05-07 12:44 42.36140 -71.02319 30 ft 13 kts 184°
2026-05-07 12:44 42.36054 -71.02294 29 ft 13 kts 137°
2026-05-07 12:44 42.35999 -71.02189 29 ft 14 kts 121°
2026-05-07 12:45 42.35954 -71.02073 29 ft 14 kts 121°
2026-05-07 12:45 42.35898 -71.01959 29 ft 15 kts 124°
2026-05-07 12:45 42.35852 -71.01834 30 ft 15 kts 108°
2026-05-07 12:45 42.35833 -71.01693 30 ft 16 kts 98°
2026-05-07 12:46 42.35846 -71.01575 30 ft 12 kts 27°
2026-05-07 12:46 42.35876 -71.01492 28 ft 11 kts 118°
2026-05-07 12:46 42.35864 -71.01390 27 ft 12 kts 101°
2026-05-07 12:46 42.35849 -71.01278 25 ft 13 kts 101°
2026-05-07 12:47 42.35839 -71.01154 23 ft 14 kts 96°
2026-05-07 12:47 42.35835 -71.01064 21 ft 15 kts 71°
2026-05-07 12:47 42.35892 -71.00949 17 ft 16 kts 49°
2026-05-07 12:47 42.35965 -71.00835 17 ft 17 kts 49°
2026-05-07 12:48 42.35957 -71.00690 20 ft 18 kts 111°
2026-05-07 12:48 42.35914 -71.00529 20 ft 19 kts 109°
2026-05-07 12:48 42.35882 -71.00356 21 ft 20 kts 76°
2026-05-07 12:48 42.35918 -71.00173 24 ft 20 kts 76°
2026-05-07 12:49 42.35904 -70.99993 23 ft 21 kts 144°
2026-05-07 12:49 42.35795 -70.99850 24 ft 22 kts 130°
2026-05-07 12:49 42.35681 -70.99701 21 ft 23 kts 139°
2026-05-07 12:49 42.35561 -70.99547 18 ft 24 kts 134°
2026-05-07 12:50 42.35487 -70.99423 19 ft 9 kts 107°
2026-05-07 12:50 42.35487 -70.99333 21 ft 10 kts 75°
2026-05-07 12:50 42.35525 -70.99254 20 ft 12 kts 358°
2026-05-07 12:50 42.35573 -70.99311 18 ft 9 kts 317°
2026-05-07 12:51 42.35753 -70.99546 23 ft 67 kts 315°
2026-05-07 12:51 42.36232 -71.00185 20 ft 127 kts 314°
2026-05-07 12:51 42.36984 -71.01171 147 ft 166 kts 315°
2026-05-07 12:51 42.37824 -71.02282 769 ft 171 kts 314°
2026-05-07 12:52 42.38635 -71.03453 1464 ft 173 kts 310°
2026-05-07 12:52 42.39403 -71.04793 1783 ft 189 kts 305°
2026-05-07 12:52 42.40142 -71.06379 2046 ft 212 kts 296°
2026-05-07 12:52 42.40807 -71.08276 2405 ft 230 kts 298°
2026-05-07 12:53 42.41799 -71.09970 3100 ft 233 kts 322°
2026-05-07 12:53 42.43239 -71.11023 3779 ft 239 kts 335°
2026-05-07 12:53 42.44803 -71.11878 4409 ft 246 kts 336°
2026-05-07 12:53 42.46415 -71.12731 5046 ft 251 kts 335°
2026-05-07 12:54 42.48060 -71.13610 5693 ft 256 kts 334°
2026-05-07 12:54 42.49726 -71.14509 6332 ft 260 kts 334°
2026-05-07 12:54 42.51402 -71.15395 6912 ft 264 kts 334°
2026-05-07 12:54 42.53159 -71.16212 7534 ft 269 kts 334°
2026-05-07 12:55 42.54945 -71.17017 8146 ft 272 kts 333°
2026-05-07 12:55 42.56755 -71.17834 8755 ft 276 kts 332°
2026-05-07 12:55 42.58586 -71.18660 9362 ft 279 kts 330°
2026-05-07 12:55 42.60436 -71.19499 9948 ft 282 kts 329°
2026-05-07 12:56 42.62313 -71.20347 10497 ft 285 kts 329°
2026-05-07 12:56 42.64209 -71.21210 11002 ft 291 kts 329°
2026-05-07 12:56 42.66176 -71.22118 11314 ft 306 kts 329°
2026-05-07 12:56 42.68242 -71.23071 11535 ft 322 kts 330°
2026-05-07 12:57 42.70416 -71.24069 11756 ft 338 kts 330°
2026-05-07 12:57 42.72701 -71.25123 11946 ft 353 kts 329°
2026-05-07 12:57 42.74913 -71.26565 12153 ft 353 kts 316°
2026-05-07 12:57 42.76761 -71.28718 12337 ft 350 kts 302°
2026-05-07 12:58 42.78097 -71.31467 12502 ft 349 kts 288°
2026-05-07 12:58 42.78842 -71.34595 12682 ft 348 kts 274°
2026-05-07 12:58 42.79171 -71.37848 13065 ft 350 kts 271°
2026-05-07 12:58 42.79459 -71.41173 13576 ft 352 kts 271°
2026-05-07 12:59 42.79747 -71.44449 14002 ft 354 kts 271°
2026-05-07 12:59 42.80052 -71.47793 14399 ft 356 kts 271°
2026-05-07 12:59 42.80378 -71.51154 14843 ft 359 kts 272°
2026-05-07 12:59 42.80708 -71.54540 15337 ft 362 kts 271°
2026-05-07 13:00 42.81039 -71.57953 15826 ft 366 kts 272°
2026-05-07 13:00 42.81371 -71.61343 16275 ft 368 kts 272°
2026-05-07 13:00 42.81711 -71.64873 16709 ft 371 kts 272°
2026-05-07 13:00 42.82044 -71.68357 17116 ft 374 kts 272°
2026-05-07 13:01 42.82382 -71.71903 17533 ft 377 kts 272°
2026-05-07 13:01 42.82721 -71.75457 17935 ft 380 kts 272°
2026-05-07 13:01 42.83061 -71.79048 18313 ft 383 kts 272°
2026-05-07 13:01 42.83398 -71.82610 18674 ft 384 kts 272°
2026-05-07 13:02 42.83739 -71.86233 19038 ft 386 kts 272°
2026-05-07 13:02 42.84080 -71.89864 19461 ft 387 kts 272°
2026-05-07 13:02 42.84419 -71.93511 19880 ft 388 kts 273°
2026-05-07 13:02 42.84757 -71.97171 20208 ft 390 kts 273°
2026-05-07 13:03 42.85097 -72.00855 20545 ft 392 kts 273°
2026-05-07 13:03 42.85438 -72.04544 20959 ft 393 kts 273°
2026-05-07 13:03 42.85774 -72.08257 21410 ft 395 kts 273°
2026-05-07 13:03 42.86117 -72.11973 21841 ft 396 kts 273°
2026-05-07 13:04 42.86462 -72.15719 22237 ft 398 kts 273°
2026-05-07 13:04 42.86806 -72.19460 22600 ft 399 kts 273°
2026-05-07 13:04 42.87144 -72.23223 22946 ft 400 kts 273°
2026-05-07 13:04 42.87485 -72.26993 23314 ft 401 kts 273°
2026-05-07 13:05 42.87822 -72.30730 23619 ft 403 kts 273°
2026-05-07 13:05 42.88164 -72.34519 23967 ft 403 kts 272°
2026-05-07 13:05 42.88501 -72.38308 24330 ft 400 kts 272°
2026-05-07 13:05 42.88827 -72.42047 24809 ft 395 kts 272°
2026-05-07 13:06 42.89155 -72.45747 25334 ft 390 kts 272°
2026-05-07 13:06 42.89479 -72.49379 25867 ft 384 kts 272°
2026-05-07 13:06 42.89798 -72.52973 26395 ft 378 kts 271°
2026-05-07 13:06 42.90110 -72.56499 26918 ft 371 kts 271°
2026-05-07 13:07 42.90413 -72.59968 27448 ft 365 kts 271°
2026-05-07 13:07 42.90706 -72.63384 27983 ft 360 kts 271°
2026-05-07 13:07 42.90999 -72.66742 28456 ft 354 kts 270°
2026-05-07 13:07 42.91287 -72.70055 28892 ft 350 kts 270°
2026-05-07 13:08 42.91568 -72.73327 29301 ft 346 kts 270°
2026-05-07 13:08 42.91846 -72.76580 29671 ft 343 kts 270°
2026-05-07 13:08 42.92111 -72.79798 30030 ft 339 kts 270°
2026-05-07 13:08 42.92368 -72.82985 30342 ft 336 kts 270°
2026-05-07 13:09 42.92630 -72.86150 30573 ft 335 kts 270°
2026-05-07 13:09 42.92895 -72.89290 30793 ft 332 kts 269°
2026-05-07 13:09 42.93155 -72.92408 31086 ft 329 kts 269°
2026-05-07 13:09 42.93413 -72.95508 31390 ft 328 kts 270°
2026-05-07 13:10 42.93675 -72.98613 31516 ft 330 kts 270°
2026-05-07 13:10 42.93934 -73.01680 31656 ft 330 kts 270°
2026-05-07 13:10 42.94194 -73.04794 31811 ft 331 kts 269°
2026-05-07 13:10 42.94451 -73.07914 31984 ft 331 kts 269°
2026-05-07 13:11 42.94957 -73.14138 32076 ft 329 kts 269°
2026-05-07 13:11 42.95466 -73.20372 32050 ft 330 kts 270°
2026-05-07 13:12 42.95970 -73.26561 32051 ft 330 kts 270°
2026-05-07 13:12 42.96471 -73.32794 32096 ft 332 kts 270°
2026-05-07 13:13 42.96989 -73.39079 32058 ft 333 kts 270°
2026-05-07 13:13 42.97512 -73.45355 32065 ft 333 kts 270°
2026-05-07 13:14 42.98017 -73.51632 32068 ft 332 kts 269°
2026-05-07 13:14 42.98511 -73.57923 32072 ft 332 kts 270°
2026-05-07 13:15 42.99003 -73.64198 32024 ft 332 kts 270°
2026-05-07 13:15 42.99493 -73.70539 31920 ft 339 kts 270°
2026-05-07 13:16 42.99987 -73.76923 31919 ft 340 kts 269°
2026-05-07 13:16 43.00476 -73.83355 31924 ft 340 kts 269°
2026-05-07 13:17 43.00965 -73.89829 31918 ft 340 kts 269°
2026-05-07 13:17 43.01442 -73.96222 31928 ft 340 kts 269°
2026-05-07 13:18 43.01928 -74.02660 31935 ft 342 kts 269°
2026-05-07 13:18 43.02412 -74.09178 31932 ft 345 kts 269°
2026-05-07 13:19 43.02886 -74.15707 31935 ft 345 kts 269°
2026-05-07 13:19 43.03357 -74.22245 31945 ft 346 kts 269°
2026-05-07 13:20 43.03839 -74.28774 31938 ft 345 kts 269°
2026-05-07 13:20 43.04311 -74.35310 31937 ft 345 kts 269°
2026-05-07 13:21 43.04780 -74.41900 31954 ft 350 kts 269°
2026-05-07 13:21 43.05251 -74.48486 31952 ft 350 kts 269°
2026-05-07 13:22 43.05706 -74.55120 31957 ft 350 kts 269°
2026-05-07 13:22 43.06172 -74.61755 31951 ft 350 kts 269°
2026-05-07 13:23 43.06626 -74.68387 31972 ft 350 kts 269°
2026-05-07 13:23 43.07081 -74.75033 31961 ft 350 kts 269°
2026-05-07 13:24 43.07534 -74.81668 31978 ft 350 kts 269°
2026-05-07 13:24 43.07976 -74.88309 31968 ft 351 kts 269°
2026-05-07 13:25 43.08424 -74.94946 31969 ft 350 kts 269°
2026-05-07 13:25 43.08862 -75.01592 31967 ft 351 kts 269°
2026-05-07 13:26 43.09289 -75.08199 32025 ft 351 kts 269°
2026-05-07 13:26 43.09725 -75.14872 31984 ft 352 kts 269°
2026-05-07 13:27 43.10154 -75.21553 31986 ft 353 kts 269°
2026-05-07 13:27 43.10579 -75.28248 31987 ft 353 kts 269°
2026-05-07 13:28 43.11002 -75.34927 31989 ft 353 kts 269°
2026-05-07 13:28 43.11401 -75.41507 31986 ft 353 kts 269°
2026-05-07 13:29 43.11819 -75.48218 32006 ft 357 kts 269°
2026-05-07 13:29 43.12239 -75.54959 31990 ft 357 kts 269°
2026-05-07 13:30 43.12648 -75.61743 31983 ft 357 kts 269°
2026-05-07 13:30 43.13057 -75.68517 31982 ft 357 kts 269°
2026-05-07 13:31 43.13456 -75.75297 31912 ft 357 kts 269°
2026-05-07 13:31 43.13850 -75.82027 31983 ft 353 kts 269°
2026-05-07 13:32 43.14234 -75.88694 31970 ft 354 kts 269°
2026-05-07 13:32 43.14625 -75.95414 31984 ft 354 kts 269°
2026-05-07 13:33 43.15016 -76.02140 31990 ft 353 kts 269°
2026-05-07 13:33 43.15372 -76.08703 31989 ft 353 kts 269°
2026-05-07 13:34 43.15858 -76.17419 32017 ft 357 kts 270°
2026-05-07 13:35 43.17073 -76.24120 31997 ft 370 kts 282°
2026-05-07 13:35 43.19005 -76.30679 31987 ft 371 kts 283°
2026-05-07 13:36 43.20926 -76.37252 31981 ft 371 kts 283°
2026-05-07 13:36 43.22843 -76.43836 31996 ft 373 kts 283°
2026-05-07 13:37 43.24746 -76.50472 32020 ft 375 kts 283°
2026-05-07 13:37 43.26680 -76.57177 31991 ft 379 kts 284°
2026-05-07 13:38 43.28520 -76.63934 31986 ft 374 kts 279°
2026-05-07 13:38 43.29149 -76.70898 31987 ft 366 kts 268°
2026-05-07 13:39 43.29241 -76.77824 31985 ft 365 kts 267°
2026-05-07 13:39 43.29343 -76.84811 31994 ft 366 kts 267°
2026-05-07 13:40 43.29445 -76.91829 32025 ft 369 kts 268°
2026-05-07 13:40 43.29537 -76.98875 32018 ft 369 kts 268°
2026-05-07 13:41 43.29635 -77.05873 32019 ft 369 kts 268°
2026-05-07 13:41 43.29723 -77.12903 31991 ft 365 kts 267°
2026-05-07 13:42 43.29803 -77.19835 32005 ft 363 kts 267°
2026-05-07 13:42 43.29879 -77.26787 32030 ft 365 kts 267°
2026-05-07 13:43 43.29953 -77.33772 32016 ft 366 kts 267°
2026-05-07 13:43 43.30024 -77.40720 32013 ft 366 kts 267°
2026-05-07 13:44 43.30092 -77.47706 32003 ft 366 kts 267°
2026-05-07 13:44 43.30161 -77.54702 32005 ft 366 kts 267°
2026-05-07 13:45 43.30221 -77.61697 32025 ft 368 kts 267°
2026-05-07 13:45 43.30275 -77.68745 32003 ft 369 kts 267°
2026-05-07 13:46 43.30324 -77.75791 32002 ft 369 kts 267°
2026-05-07 13:46 43.30370 -77.82836 32003 ft 369 kts 267°
2026-05-07 13:47 43.30408 -77.89822 32001 ft 368 kts 267°
2026-05-07 13:47 43.30428 -77.96839 32011 ft 369 kts 267°
2026-05-07 13:48 43.30456 -78.03909 32005 ft 370 kts 267°
2026-05-07 13:48 43.30482 -78.10969 32007 ft 370 kts 267°
2026-05-07 13:49 43.30354 -78.18037 32004 ft 370 kts 265°
2026-05-07 13:49 43.30178 -78.25099 32007 ft 370 kts 265°
2026-05-07 13:50 43.29993 -78.32164 32005 ft 370 kts 265°
2026-05-07 13:50 43.29802 -78.39231 32002 ft 370 kts 265°
2026-05-07 13:51 43.29608 -78.46299 31997 ft 370 kts 265°
2026-05-07 13:51 43.29416 -78.53310 32011 ft 370 kts 265°
2026-05-07 13:52 43.29212 -78.60373 32007 ft 370 kts 265°
2026-05-07 13:52 43.29004 -78.67444 32001 ft 370 kts 265°
2026-05-07 13:53 43.28795 -78.74550 32016 ft 372 kts 265°
2026-05-07 13:53 43.28586 -78.81606 31994 ft 373 kts 265°
2026-05-07 13:54 43.28365 -78.88688 31984 ft 370 kts 265°
2026-05-07 13:54 43.28242 -78.95744 31987 ft 371 kts 268°
2026-05-07 13:55 43.28313 -79.02840 31994 ft 372 kts 268°
2026-05-07 13:55 43.28391 -79.09939 31993 ft 373 kts 269°
2026-05-07 13:56 43.29645 -79.16944 31993 ft 387 kts 287°
2026-05-07 13:56 43.31956 -79.23598 31998 ft 383 kts 282°
2026-05-07 13:57 43.33540 -79.30568 32005 ft 384 kts 281°
2026-05-07 13:57 43.35185 -79.37579 31997 ft 384 kts 282°
2026-05-07 13:58 43.36849 -79.44569 32015 ft 385 kts 282°
2026-05-07 13:58 43.38501 -79.51571 31999 ft 385 kts 282°
2026-05-07 13:59 43.40152 -79.58587 31998 ft 386 kts 282°
2026-05-07 13:59 43.41817 -79.65555 31996 ft 386 kts 282°
2026-05-07 14:00 43.43468 -79.72569 31988 ft 385 kts 282°
2026-05-07 14:00 43.45106 -79.79530 31990 ft 385 kts 282°
2026-05-07 14:01 43.46755 -79.86568 31989 ft 386 kts 282°
2026-05-07 14:01 43.48395 -79.93621 31989 ft 386 kts 282°
2026-05-07 14:02 43.50034 -80.00672 31981 ft 386 kts 282°
2026-05-07 14:02 43.51598 -80.07452 31974 ft 386 kts 282°
2026-05-07 14:03 43.53217 -80.14508 31970 ft 386 kts 282°
2026-05-07 14:03 43.54846 -80.21585 31970 ft 387 kts 282°
2026-05-07 14:04 43.56465 -80.28669 31964 ft 387 kts 282°
2026-05-07 14:04 43.58079 -80.35760 31964 ft 387 kts 282°
2026-05-07 14:05 43.59710 -80.42846 31983 ft 388 kts 282°
2026-05-07 14:05 43.61330 -80.49948 31983 ft 387 kts 282°
2026-05-07 14:06 43.62938 -80.57054 32003 ft 389 kts 282°
2026-05-07 14:06 43.64542 -80.64204 32010 ft 390 kts 282°
2026-05-07 14:07 43.66140 -80.71342 31990 ft 392 kts 282°
2026-05-07 14:07 43.67763 -80.78547 31988 ft 393 kts 282°
2026-05-07 14:08 43.69368 -80.85771 31988 ft 392 kts 282°
2026-05-07 14:08 43.70964 -80.92992 31994 ft 394 kts 283°
2026-05-07 14:09 43.72574 -81.00247 31989 ft 395 kts 283°
2026-05-07 14:09 43.74184 -81.07510 31990 ft 395 kts 283°
2026-05-07 14:10 43.75776 -81.14729 31992 ft 395 kts 282°
2026-05-07 14:10 43.77367 -81.22004 31992 ft 395 kts 282°
2026-05-07 14:11 43.78962 -81.29288 32005 ft 395 kts 283°
2026-05-07 14:11 43.80551 -81.36592 31986 ft 397 kts 282°
2026-05-07 14:12 43.82138 -81.43917 32004 ft 397 kts 283°
2026-05-07 14:12 43.83721 -81.51244 32007 ft 397 kts 283°
2026-05-07 14:13 43.85307 -81.58567 31990 ft 397 kts 282°
2026-05-07 14:13 43.86883 -81.65900 31996 ft 397 kts 282°
2026-05-07 14:14 43.88458 -81.73184 32000 ft 397 kts 283°
2026-05-07 14:14 43.90031 -81.80524 31986 ft 397 kts 282°
2026-05-07 14:15 43.91599 -81.87861 32003 ft 397 kts 282°
2026-05-07 14:15 43.93154 -81.95208 31988 ft 397 kts 282°
2026-05-07 14:16 43.95335 -82.02290 32016 ft 407 kts 296°
2026-05-07 14:16 43.97811 -82.09300 31997 ft 401 kts 282°
2026-05-07 14:17 43.98415 -82.16899 32001 ft 396 kts 268°
2026-05-07 14:17 43.98269 -82.24558 31995 ft 397 kts 268°
2026-05-07 14:18 43.98135 -82.32182 31992 ft 398 kts 268°
2026-05-07 14:18 43.98002 -82.39873 32001 ft 398 kts 268°
2026-05-07 14:19 43.97877 -82.47563 31996 ft 399 kts 268°
2026-05-07 14:19 43.97755 -82.55226 31988 ft 396 kts 268°
2026-05-07 14:20 43.97625 -82.62864 31989 ft 396 kts 268°
2026-05-07 14:20 43.97482 -82.70500 31988 ft 395 kts 267°
2026-05-07 14:21 43.97339 -82.78121 31984 ft 395 kts 268°
2026-05-07 14:21 43.97216 -82.85779 31984 ft 397 kts 268°
2026-05-07 14:22 43.97070 -82.93397 31984 ft 397 kts 267°
2026-05-07 14:22 43.96912 -83.01063 31983 ft 397 kts 267°
2026-05-07 14:23 43.96778 -83.07452 31983 ft 397 kts 267°
2026-05-07 14:23 43.96612 -83.15110 31983 ft 397 kts 267°
2026-05-07 14:24 43.96437 -83.22796 31986 ft 399 kts 267°
2026-05-07 14:24 43.96256 -83.30498 31984 ft 399 kts 267°
2026-05-07 14:25 43.96073 -83.38192 31983 ft 399 kts 267°
2026-05-07 14:25 43.95897 -83.45884 31986 ft 399 kts 267°
2026-05-07 14:26 43.95705 -83.53527 31988 ft 398 kts 267°
2026-05-07 14:26 43.95500 -83.61224 31984 ft 400 kts 267°
2026-05-07 14:27 43.95291 -83.68933 31986 ft 400 kts 267°
2026-05-07 14:27 43.95083 -83.76646 31989 ft 400 kts 267°
2026-05-07 14:28 43.94877 -83.84363 31978 ft 400 kts 267°
2026-05-07 14:28 43.94659 -83.92075 31992 ft 400 kts 267°
2026-05-07 14:29 43.94432 -83.99818 31990 ft 401 kts 267°
2026-05-07 14:29 43.94200 -84.07559 31987 ft 401 kts 266°
2026-05-07 14:30 43.93968 -84.15259 31989 ft 401 kts 266°
2026-05-07 14:30 43.93728 -84.22994 31991 ft 402 kts 266°
2026-05-07 14:31 43.93482 -84.30753 32005 ft 403 kts 266°
2026-05-07 14:31 43.93539 -84.38555 31992 ft 407 kts 276°
2026-05-07 14:32 43.95180 -84.46124 31994 ft 412 kts 287°
2026-05-07 14:32 43.97206 -84.53580 31990 ft 413 kts 287°
2026-05-07 14:33 43.99192 -84.61054 31990 ft 412 kts 287°
2026-05-07 14:33 44.01165 -84.68536 31993 ft 413 kts 287°
2026-05-07 14:34 44.03124 -84.75986 31994 ft 413 kts 287°
2026-05-07 14:34 44.05085 -84.83493 31993 ft 413 kts 287°
2026-05-07 14:35 44.07042 -84.91017 31991 ft 413 kts 287°
2026-05-07 14:35 44.09002 -84.98556 31992 ft 413 kts 287°
2026-05-07 14:36 44.10943 -85.06024 31996 ft 414 kts 287°
2026-05-07 14:36 44.12906 -85.13631 32014 ft 417 kts 287°
2026-05-07 14:37 44.14851 -85.21186 31991 ft 418 kts 287°
2026-05-07 14:37 44.17781 -85.32625 31988 ft 418 kts 287°
2026-05-07 14:38 44.19731 -85.40260 31979 ft 418 kts 287°
2026-05-07 14:38 44.21681 -85.47923 31979 ft 420 kts 287°
2026-05-07 14:39 44.23634 -85.55596 31983 ft 420 kts 287°
2026-05-07 14:39 44.25581 -85.63283 31984 ft 420 kts 287°
2026-05-07 14:40 44.27510 -85.70917 31993 ft 420 kts 287°
2026-05-07 14:40 44.29440 -85.78613 32000 ft 420 kts 287°
2026-05-07 14:41 44.31368 -85.86311 32006 ft 420 kts 287°
2026-05-07 14:41 44.33291 -85.94014 32013 ft 420 kts 287°
2026-05-07 14:42 44.35210 -86.01729 32018 ft 420 kts 287°
2026-05-07 14:42 44.37135 -86.09478 32012 ft 423 kts 287°
2026-05-07 14:43 44.39054 -86.17255 32009 ft 423 kts 287°
2026-05-07 14:43 44.40960 -86.25006 32007 ft 425 kts 287°
2026-05-07 14:44 44.42880 -86.32819 32010 ft 425 kts 287°
2026-05-07 14:44 44.44795 -86.40641 32019 ft 425 kts 287°
2026-05-07 14:45 44.46700 -86.48468 32018 ft 425 kts 287°
2026-05-07 14:45 44.48601 -86.56305 32021 ft 425 kts 287°
2026-05-07 14:46 44.50501 -86.64152 32023 ft 426 kts 287°
2026-05-07 14:46 44.52399 -86.72021 32019 ft 426 kts 287°
2026-05-07 14:47 44.54293 -86.79909 32015 ft 426 kts 287°
2026-05-07 14:47 44.56170 -86.87732 32014 ft 426 kts 287°
2026-05-07 14:48 44.58049 -86.95622 32018 ft 428 kts 287°
2026-05-07 14:48 44.59943 -87.03583 32007 ft 430 kts 287°
2026-05-07 14:49 44.61836 -87.11559 32012 ft 430 kts 287°
2026-05-07 14:49 44.63705 -87.19465 32012 ft 430 kts 287°
2026-05-07 14:50 44.65577 -87.27443 32014 ft 430 kts 287°
2026-05-07 14:50 44.67452 -87.35420 32008 ft 430 kts 287°
2026-05-07 14:51 44.69319 -87.43390 32011 ft 429 kts 287°
2026-05-07 14:51 44.71173 -87.51369 32011 ft 429 kts 287°
2026-05-07 14:52 44.73024 -87.59366 32014 ft 429 kts 287°
2026-05-07 14:52 44.74860 -87.67310 32012 ft 430 kts 287°
2026-05-07 14:53 44.76701 -87.75311 32004 ft 430 kts 287°
2026-05-07 14:53 44.78543 -87.83323 32001 ft 430 kts 287°
2026-05-07 14:54 44.80378 -87.91342 32003 ft 430 kts 287°
2026-05-07 14:54 44.82202 -87.99349 32002 ft 430 kts 286°
2026-05-07 14:55 44.84020 -88.07381 31999 ft 430 kts 286°
2026-05-07 14:55 44.85831 -88.15372 31994 ft 432 kts 287°
2026-05-07 14:56 44.87648 -88.23444 31992 ft 432 kts 287°
2026-05-07 14:56 44.89455 -88.31519 31994 ft 432 kts 287°
2026-05-07 14:57 44.91260 -88.39591 31991 ft 432 kts 287°
2026-05-07 14:57 44.93061 -88.47686 31985 ft 432 kts 287°
2026-05-07 14:58 44.94856 -88.55783 31992 ft 432 kts 287°
2026-05-07 14:58 44.96648 -88.63889 31994 ft 432 kts 287°
2026-05-07 14:59 44.98433 -88.71986 31993 ft 432 kts 287°
2026-05-07 14:59 45.00216 -88.80121 32000 ft 434 kts 287°
2026-05-07 15:00 45.01982 -88.88222 31992 ft 434 kts 287°
2026-05-07 15:00 45.03760 -88.96385 32002 ft 434 kts 287°
2026-05-07 15:01 45.05528 -89.04550 31996 ft 434 kts 287°
2026-05-07 15:01 45.07301 -89.12745 31976 ft 435 kts 286°
2026-05-07 15:02 45.09043 -89.20906 31971 ft 436 kts 286°
2026-05-07 15:02 45.10800 -89.29118 31972 ft 435 kts 287°
2026-05-07 15:03 45.12546 -89.37324 31982 ft 435 kts 286°
2026-05-07 15:03 45.14274 -89.45559 31998 ft 435 kts 286°
2026-05-07 15:04 45.16008 -89.53780 31996 ft 435 kts 286°
2026-05-07 15:04 45.17737 -89.62007 31997 ft 435 kts 286°
2026-05-07 15:05 45.19462 -89.70236 32003 ft 436 kts 286°
2026-05-07 15:05 45.21181 -89.78495 31996 ft 437 kts 286°
2026-05-07 15:06 45.22898 -89.86762 31993 ft 437 kts 286°
2026-05-07 15:06 45.24605 -89.94987 31995 ft 437 kts 286°
2026-05-07 15:07 45.26314 -90.03268 31974 ft 436 kts 286°
2026-05-07 15:07 45.28003 -90.11526 31978 ft 436 kts 286°
2026-05-07 15:08 45.29697 -90.19800 31976 ft 436 kts 286°
2026-05-07 15:08 45.31380 -90.28083 31976 ft 436 kts 286°
2026-05-07 15:09 45.33062 -90.36353 31980 ft 436 kts 286°
2026-05-07 15:09 45.34732 -90.44625 31980 ft 435 kts 286°
2026-05-07 15:10 45.36109 -90.51513 31982 ft 435 kts 286°
2026-05-07 15:10 45.38027 -90.61131 31991 ft 435 kts 286°
2026-05-07 15:11 45.39676 -90.69419 31991 ft 435 kts 286°
2026-05-07 15:11 45.41042 -90.76321 31990 ft 435 kts 286°
2026-05-07 15:12 45.42680 -90.84609 31990 ft 434 kts 286°
2026-05-07 15:12 45.44315 -90.92888 31993 ft 434 kts 286°
2026-05-07 15:13 45.45943 -91.01175 31981 ft 434 kts 286°
2026-05-07 15:13 45.47571 -91.09466 31980 ft 434 kts 286°
2026-05-07 15:14 45.49189 -91.17749 31968 ft 434 kts 286°
2026-05-07 15:14 45.50785 -91.26013 31981 ft 432 kts 286°
2026-05-07 15:15 45.52376 -91.34265 31986 ft 432 kts 286°
2026-05-07 15:15 45.53956 -91.42487 31991 ft 432 kts 286°
2026-05-07 15:16 45.55530 -91.50763 31990 ft 432 kts 286°
2026-05-07 15:16 45.57096 -91.59033 31992 ft 430 kts 286°
2026-05-07 15:17 45.58665 -91.67284 31989 ft 430 kts 286°
2026-05-07 15:17 45.60224 -91.75542 31990 ft 431 kts 286°
2026-05-07 15:18 45.61775 -91.83811 31993 ft 430 kts 286°
2026-05-07 15:18 45.63317 -91.92065 31978 ft 430 kts 286°
2026-05-07 15:19 45.64860 -92.00311 31970 ft 428 kts 286°
2026-05-07 15:19 45.66376 -92.08493 31979 ft 428 kts 286°
2026-05-07 15:20 45.67895 -92.16729 31981 ft 428 kts 286°
2026-05-07 15:20 45.69407 -92.24979 31986 ft 428 kts 286°
2026-05-07 15:21 45.70916 -92.33230 31979 ft 428 kts 286°
2026-05-07 15:21 45.72410 -92.41452 31969 ft 426 kts 286°
2026-05-07 15:22 45.73900 -92.49674 31974 ft 426 kts 286°
2026-05-07 15:22 45.75371 -92.57830 31982 ft 426 kts 286°
2026-05-07 15:23 45.76852 -92.66049 31973 ft 426 kts 286°
2026-05-07 15:23 45.78320 -92.74271 31986 ft 426 kts 286°
2026-05-07 15:24 45.79783 -92.82485 31984 ft 424 kts 287°
2026-05-07 15:24 45.81241 -92.90673 31988 ft 424 kts 286°
2026-05-07 15:25 45.82682 -92.98888 31989 ft 424 kts 286°
2026-05-07 15:25 45.84124 -93.07095 31997 ft 424 kts 286°
2026-05-07 15:26 45.85552 -93.15255 31976 ft 424 kts 286°
2026-05-07 15:26 45.86981 -93.23440 31992 ft 423 kts 287°
2026-05-07 15:27 45.88407 -93.31640 31998 ft 423 kts 286°
2026-05-07 15:27 45.89818 -93.39819 32000 ft 423 kts 286°
2026-05-07 15:28 45.91223 -93.48023 31995 ft 423 kts 286°
2026-05-07 15:28 45.92624 -93.56210 32000 ft 423 kts 286°
2026-05-07 15:29 45.94020 -93.64442 31995 ft 423 kts 286°
2026-05-07 15:29 45.95407 -93.72651 31992 ft 423 kts 286°
2026-05-07 15:30 45.96784 -93.80832 31988 ft 423 kts 286°
2026-05-07 15:30 45.98168 -93.89057 31986 ft 423 kts 286°
2026-05-07 15:31 45.99540 -93.97282 31967 ft 422 kts 287°
2026-05-07 15:31 46.00894 -94.05511 31979 ft 423 kts 286°
2026-05-07 15:32 46.02214 -94.13706 31977 ft 423 kts 286°
2026-05-07 15:32 46.03541 -94.21962 31942 ft 423 kts 286°
2026-05-07 15:33 46.04863 -94.30223 31932 ft 423 kts 286°
2026-05-07 15:33 46.06179 -94.38489 31912 ft 423 kts 286°
2026-05-07 15:34 46.07479 -94.46693 31921 ft 422 kts 286°
2026-05-07 15:34 46.08783 -94.54952 31941 ft 423 kts 286°
2026-05-07 15:35 46.10084 -94.63235 31940 ft 424 kts 286°
2026-05-07 15:35 46.11371 -94.71521 31963 ft 423 kts 286°
2026-05-07 15:36 46.12662 -94.79800 31931 ft 423 kts 287°
2026-05-07 15:36 46.13942 -94.88061 31955 ft 422 kts 287°
2026-05-07 15:37 46.15213 -94.96318 31961 ft 422 kts 287°
2026-05-07 15:37 46.16473 -95.04595 31961 ft 422 kts 287°
2026-05-07 15:38 46.17726 -95.12816 31967 ft 422 kts 286°
2026-05-07 15:38 46.18980 -95.21101 31947 ft 421 kts 287°
2026-05-07 15:39 46.20224 -95.29341 31972 ft 420 kts 287°
2026-05-07 15:39 46.21463 -95.37604 31975 ft 420 kts 287°
2026-05-07 15:40 46.22698 -95.45858 31980 ft 420 kts 287°
2026-05-07 15:40 46.23919 -95.54122 31985 ft 421 kts 287°
2026-05-07 15:41 46.25138 -95.62399 31951 ft 420 kts 287°
2026-05-07 15:41 46.26342 -95.70646 31971 ft 419 kts 287°
2026-05-07 15:42 46.27539 -95.78839 31970 ft 419 kts 287°
2026-05-07 15:42 46.28741 -95.87095 31967 ft 419 kts 287°
2026-05-07 15:43 46.29930 -95.95350 31964 ft 419 kts 287°
2026-05-07 15:43 46.31122 -96.03613 31939 ft 418 kts 287°
2026-05-07 15:44 46.32298 -96.11847 31961 ft 418 kts 287°
2026-05-07 15:44 46.33442 -96.20098 31959 ft 418 kts 286°
2026-05-07 15:45 46.34585 -96.28347 31958 ft 418 kts 287°
2026-05-07 15:45 46.35752 -96.36583 31969 ft 417 kts 287°
2026-05-07 15:46 46.37494 -96.48863 31950 ft 414 kts 287°
2026-05-07 15:47 46.38635 -96.57050 31962 ft 415 kts 287°
2026-05-07 15:47 46.39765 -96.65275 31957 ft 416 kts 287°
2026-05-07 15:48 46.40886 -96.73509 31971 ft 416 kts 287°
2026-05-07 15:48 46.42014 -96.81728 31963 ft 416 kts 287°
2026-05-07 15:49 46.43121 -96.89929 31948 ft 412 kts 288°
2026-05-07 15:49 46.44223 -96.98095 31959 ft 412 kts 288°
2026-05-07 15:50 46.45308 -97.06225 31958 ft 413 kts 287°
2026-05-07 15:50 46.46364 -97.14400 31968 ft 412 kts 288°
2026-05-07 15:51 46.47448 -97.22578 31966 ft 412 kts 288°
2026-05-07 15:51 46.48525 -97.30746 31933 ft 410 kts 288°
2026-05-07 15:52 46.49593 -97.38852 31958 ft 409 kts 288°
2026-05-07 15:52 46.50643 -97.46954 31958 ft 409 kts 288°
2026-05-07 15:53 46.51682 -97.55082 31962 ft 409 kts 288°
2026-05-07 15:53 46.52725 -97.63204 31963 ft 409 kts 288°
2026-05-07 15:54 46.53785 -97.71269 31961 ft 409 kts 288°
2026-05-07 15:54 46.54813 -97.79390 31967 ft 408 kts 288°
2026-05-07 15:55 46.55839 -97.87512 31957 ft 408 kts 288°
2026-05-07 15:55 46.56865 -97.95629 31959 ft 408 kts 288°
2026-05-07 15:56 46.57890 -98.03751 31956 ft 408 kts 288°
2026-05-07 15:56 46.58898 -98.11873 31939 ft 408 kts 288°
2026-05-07 15:57 46.59897 -98.19936 31958 ft 408 kts 288°
2026-05-07 15:57 46.60887 -98.28055 31961 ft 408 kts 287°
2026-05-07 15:58 46.61868 -98.36194 31958 ft 408 kts 287°
2026-05-07 15:58 46.62857 -98.44336 31959 ft 408 kts 287°
2026-05-07 15:59 46.63669 -98.51082 31952 ft 408 kts 287°
2026-05-07 15:59 46.64649 -98.59258 31947 ft 409 kts 287°
2026-05-07 16:00 46.65618 -98.67435 31951 ft 410 kts 287°
2026-05-07 16:00 46.66580 -98.75614 31952 ft 410 kts 287°
2026-05-07 16:01 46.67538 -98.83806 31950 ft 410 kts 287°
2026-05-07 16:01 46.68501 -98.91997 31948 ft 410 kts 287°
2026-05-07 16:02 46.69466 -99.00199 31922 ft 411 kts 286°
2026-05-07 16:02 46.70414 -99.08426 31943 ft 412 kts 286°
2026-05-07 16:03 46.71342 -99.16610 31946 ft 412 kts 286°
2026-05-07 16:03 46.72282 -99.24841 31947 ft 412 kts 286°
2026-05-07 16:04 46.73215 -99.33088 31950 ft 412 kts 286°
2026-05-07 16:04 46.74141 -99.41329 31913 ft 412 kts 285°
2026-05-07 16:05 46.75058 -99.49591 31958 ft 413 kts 285°
2026-05-07 16:05 46.75975 -99.57867 31954 ft 413 kts 285°
2026-05-07 16:06 46.76884 -99.66141 31955 ft 413 kts 285°
2026-05-07 16:06 46.77785 -99.74412 31964 ft 413 kts 285°
2026-05-07 16:07 46.78681 -99.82707 31915 ft 414 kts 285°
2026-05-07 16:07 46.79571 -99.90978 31949 ft 415 kts 285°
2026-05-07 16:08 46.80454 -99.99304 31964 ft 415 kts 285°
2026-05-07 16:08 46.81343 -100.07636 31966 ft 415 kts 285°
2026-05-07 16:09 46.82226 -100.15974 31969 ft 416 kts 285°
2026-05-07 16:09 46.83095 -100.24321 31924 ft 416 kts 284°
2026-05-07 16:10 46.83967 -100.32701 31955 ft 418 kts 284°
2026-05-07 16:10 46.84832 -100.41098 31967 ft 418 kts 284°
2026-05-07 16:11 46.85693 -100.49510 31968 ft 418 kts 284°
2026-05-07 16:11 46.86539 -100.57863 31968 ft 418 kts 284°
2026-05-07 16:12 46.87387 -100.66272 31964 ft 418 kts 284°
2026-05-07 16:12 46.88228 -100.74715 31962 ft 420 kts 283°
2026-05-07 16:13 46.89068 -100.83176 31965 ft 421 kts 283°
2026-05-07 16:13 46.89899 -100.91638 31962 ft 421 kts 283°
2026-05-07 16:14 46.90728 -101.00123 31960 ft 421 kts 283°
2026-05-07 16:14 46.91543 -101.08543 31957 ft 421 kts 283°
2026-05-07 16:15 46.92362 -101.17036 31943 ft 422 kts 283°
2026-05-07 16:15 46.93175 -101.25567 31953 ft 423 kts 283°
2026-05-07 16:16 46.93976 -101.34089 31953 ft 423 kts 283°
2026-05-07 16:16 46.94779 -101.42623 31949 ft 423 kts 283°
2026-05-07 16:17 46.95569 -101.51157 31949 ft 423 kts 282°
2026-05-07 16:17 46.96346 -101.59717 31928 ft 424 kts 282°
2026-05-07 16:18 46.97122 -101.68288 31942 ft 425 kts 282°
2026-05-07 16:18 46.97902 -101.76857 31945 ft 425 kts 282°
2026-05-07 16:19 46.98677 -101.85433 31948 ft 424 kts 282°
2026-05-07 16:19 46.99434 -101.93958 31939 ft 424 kts 282°
2026-05-07 16:20 47.00189 -102.02524 31937 ft 424 kts 282°
2026-05-07 16:20 47.00952 -102.11090 31938 ft 424 kts 282°
2026-05-07 16:21 47.01710 -102.19655 31935 ft 424 kts 282°
2026-05-07 16:21 47.02467 -102.28230 31936 ft 424 kts 282°
2026-05-07 16:22 47.03223 -102.36800 31941 ft 424 kts 282°
2026-05-07 16:22 47.03962 -102.45396 31921 ft 425 kts 282°
2026-05-07 16:23 47.04691 -102.53996 31926 ft 425 kts 282°
2026-05-07 16:23 47.05412 -102.62555 31922 ft 425 kts 282°
2026-05-07 16:24 47.06131 -102.71159 31921 ft 425 kts 282°
2026-05-07 16:24 47.06843 -102.79772 31917 ft 425 kts 282°
2026-05-07 16:25 47.07550 -102.88399 31918 ft 427 kts 281°
2026-05-07 16:25 47.08257 -102.97056 31922 ft 427 kts 281°
2026-05-07 16:26 47.08952 -103.05713 31924 ft 427 kts 281°
2026-05-07 16:26 47.09638 -103.14376 31925 ft 427 kts 281°
2026-05-07 16:27 47.10303 -103.22995 31927 ft 427 kts 281°
2026-05-07 16:27 47.10988 -103.31672 31908 ft 429 kts 281°
2026-05-07 16:28 47.11670 -103.40385 31919 ft 429 kts 280°
2026-05-07 16:28 47.12338 -103.49095 31939 ft 429 kts 280°
2026-05-07 16:29 47.12996 -103.57815 31929 ft 429 kts 280°
2026-05-07 16:29 47.13650 -103.66534 31939 ft 430 kts 280°
2026-05-07 16:30 47.14300 -103.75262 31927 ft 431 kts 279°
2026-05-07 16:30 47.14942 -103.83964 31943 ft 431 kts 279°
2026-05-07 16:31 47.15579 -103.92739 31942 ft 431 kts 279°
2026-05-07 16:31 47.16208 -104.01505 31943 ft 431 kts 279°
2026-05-07 16:32 47.16826 -104.10273 31941 ft 431 kts 279°
2026-05-07 16:32 47.17444 -104.19052 31930 ft 433 kts 279°
2026-05-07 16:33 47.18053 -104.27862 31945 ft 433 kts 278°
2026-05-07 16:33 47.18659 -104.36624 31947 ft 434 kts 278°
2026-05-07 16:34 47.19266 -104.45499 31944 ft 434 kts 278°
2026-05-07 16:34 47.19854 -104.54265 31942 ft 434 kts 278°
2026-05-07 16:35 47.20443 -104.63104 31927 ft 435 kts 278°
2026-05-07 16:35 47.21014 -104.71998 31936 ft 436 kts 278°
2026-05-07 16:36 47.21579 -104.80875 31939 ft 436 kts 278°
2026-05-07 16:36 47.22148 -104.89760 31938 ft 436 kts 278°
2026-05-07 16:37 47.22705 -104.98597 31938 ft 436 kts 278°
2026-05-07 16:37 47.23234 -105.07520 32185 ft 438 kts 277°
2026-05-07 16:37 47.23512 -105.11974 32406 ft 438 kts 277°
2026-05-07 16:38 47.23804 -105.16434 32634 ft 437 kts 278°
2026-05-07 16:38 47.24093 -105.20896 32864 ft 437 kts 277°
2026-05-07 16:38 47.24372 -105.25347 33093 ft 436 kts 277°
2026-05-07 16:38 47.24642 -105.29787 33308 ft 436 kts 277°
2026-05-07 16:39 47.24908 -105.34224 33545 ft 435 kts 277°
2026-05-07 16:39 47.25171 -105.38654 33757 ft 434 kts 277°
2026-05-07 16:39 47.25433 -105.43091 33920 ft 435 kts 277°
2026-05-07 16:40 47.25951 -105.51968 33926 ft 435 kts 277°
2026-05-07 16:40 47.26463 -105.60845 33906 ft 436 kts 276°
2026-05-07 16:41 47.26969 -105.69747 33908 ft 436 kts 276°
2026-05-07 16:41 47.27470 -105.78632 33908 ft 436 kts 276°
2026-05-07 16:42 47.27964 -105.87465 33910 ft 436 kts 276°
2026-05-07 16:42 47.28448 -105.96368 33896 ft 434 kts 276°
2026-05-07 16:43 47.28926 -106.05232 33906 ft 434 kts 276°
2026-05-07 16:43 47.29393 -106.14106 33908 ft 435 kts 276°
2026-05-07 16:44 47.29858 -106.22990 33908 ft 435 kts 276°
2026-05-07 16:44 47.30316 -106.31883 33909 ft 435 kts 276°
2026-05-07 16:45 47.30770 -106.40775 33913 ft 435 kts 276°
2026-05-07 16:45 47.31207 -106.49607 33906 ft 435 kts 276°
2026-05-07 16:46 47.31646 -106.58517 33907 ft 435 kts 276°
2026-05-07 16:46 47.32006 -106.65911 33906 ft 435 kts 276°
2026-05-07 16:47 47.32431 -106.74812 33911 ft 435 kts 276°
2026-05-07 16:47 47.32847 -106.83692 33898 ft 429 kts 277°
2026-05-07 16:48 47.33244 -106.92380 33909 ft 424 kts 277°
2026-05-07 16:48 47.33639 -107.01063 33911 ft 424 kts 277°
2026-05-07 16:49 47.34024 -107.09736 33913 ft 424 kts 277°
2026-05-07 16:49 47.34397 -107.18363 33914 ft 424 kts 276°
2026-05-07 16:50 47.34762 -107.27063 33893 ft 425 kts 276°
2026-05-07 16:50 47.35127 -107.35718 33904 ft 423 kts 277°
2026-05-07 16:51 47.35491 -107.44389 33907 ft 423 kts 277°
2026-05-07 16:51 47.35844 -107.53046 33909 ft 423 kts 276°
2026-05-07 16:52 47.36190 -107.61700 33911 ft 423 kts 276°
2026-05-07 16:52 47.36531 -107.70316 33914 ft 423 kts 276°
2026-05-07 16:53 47.36861 -107.78957 33915 ft 421 kts 277°
2026-05-07 16:53 47.37183 -107.87574 33916 ft 421 kts 277°
2026-05-07 16:54 47.37501 -107.96191 33906 ft 421 kts 277°
2026-05-07 16:54 47.37817 -108.04823 33907 ft 421 kts 277°
2026-05-07 16:55 47.38128 -108.13394 33902 ft 421 kts 276°
2026-05-07 16:55 47.38425 -108.21993 33893 ft 418 kts 277°
2026-05-07 16:56 47.38717 -108.30560 33892 ft 418 kts 277°
2026-05-07 16:56 47.39145 -108.43406 33890 ft 418 kts 277°
2026-05-07 16:57 47.39421 -108.51986 33891 ft 418 kts 277°
2026-05-07 16:57 47.39690 -108.60574 33861 ft 418 kts 277°
2026-05-07 16:58 47.39955 -108.69121 33879 ft 416 kts 278°
2026-05-07 16:58 47.40210 -108.77600 33889 ft 416 kts 278°
2026-05-07 16:59 47.40461 -108.86136 33890 ft 416 kts 278°
2026-05-07 16:59 47.40701 -108.94669 33897 ft 416 kts 277°
2026-05-07 17:00 47.40937 -109.03205 33900 ft 416 kts 277°
2026-05-07 17:00 47.41170 -109.11733 33890 ft 414 kts 278°
2026-05-07 17:01 47.41392 -109.20222 33923 ft 414 kts 278°
2026-05-07 17:01 47.41601 -109.28673 33926 ft 414 kts 278°
2026-05-07 17:02 47.41815 -109.37180 33941 ft 414 kts 278°
2026-05-07 17:02 47.42025 -109.45692 33943 ft 415 kts 278°
2026-05-07 17:03 47.42225 -109.54210 33921 ft 414 kts 278°
2026-05-07 17:03 47.42417 -109.62702 33942 ft 413 kts 278°
2026-05-07 17:04 47.42594 -109.71142 33946 ft 413 kts 277°
2026-05-07 17:04 47.42775 -109.79640 33946 ft 413 kts 277°
2026-05-07 17:05 47.42946 -109.88118 33947 ft 413 kts 277°
2026-05-07 17:05 47.43115 -109.96605 33916 ft 413 kts 277°
2026-05-07 17:06 47.43276 -110.05084 33939 ft 412 kts 277°
2026-05-07 17:06 47.43429 -110.13558 33946 ft 413 kts 277°
2026-05-07 17:07 47.43579 -110.22032 33944 ft 412 kts 277°
2026-05-07 17:07 47.43721 -110.30501 33942 ft 412 kts 277°
2026-05-07 17:08 47.43853 -110.38969 33949 ft 412 kts 277°
2026-05-07 17:08 47.43981 -110.47351 33945 ft 410 kts 276°
2026-05-07 17:09 47.44102 -110.55780 33955 ft 410 kts 276°
2026-05-07 17:09 47.44212 -110.64211 33951 ft 410 kts 276°
2026-05-07 17:10 47.44318 -110.72634 33954 ft 410 kts 276°
2026-05-07 17:10 47.44421 -110.81056 33947 ft 410 kts 276°
2026-05-07 17:11 47.44509 -110.89475 33957 ft 410 kts 276°
2026-05-07 17:11 47.44595 -110.97847 33969 ft 410 kts 276°
2026-05-07 17:12 47.44685 -111.06270 33980 ft 410 kts 276°
2026-05-07 17:12 47.44762 -111.14692 33994 ft 410 kts 276°
2026-05-07 17:13 47.44834 -111.23118 34009 ft 410 kts 276°
2026-05-07 17:13 47.44899 -111.31537 33995 ft 408 kts 275°
2026-05-07 17:14 47.44969 -111.39905 34009 ft 407 kts 275°
2026-05-07 17:14 47.45116 -111.48288 34009 ft 407 kts 276°
2026-05-07 17:15 47.45267 -111.56592 33942 ft 407 kts 276°
2026-05-07 17:15 47.45412 -111.64951 33944 ft 406 kts 276°
2026-05-07 17:16 47.45557 -111.73295 33946 ft 406 kts 276°
2026-05-07 17:16 47.45699 -111.81613 33934 ft 404 kts 276°
2026-05-07 17:17 47.45837 -111.89924 33959 ft 404 kts 276°
2026-05-07 17:17 47.45966 -111.98249 33962 ft 404 kts 275°
2026-05-07 17:18 47.46087 -112.06501 33973 ft 404 kts 276°
2026-05-07 17:18 47.46214 -112.14860 33974 ft 404 kts 275°
2026-05-07 17:19 47.46323 -112.23122 33967 ft 404 kts 275°
2026-05-07 17:19 47.46420 -112.31415 33981 ft 403 kts 275°
2026-05-07 17:20 47.46524 -112.39707 33978 ft 403 kts 275°
2026-05-07 17:20 47.46610 -112.47995 33977 ft 404 kts 275°
2026-05-07 17:21 47.46685 -112.56299 33979 ft 404 kts 275°
2026-05-07 17:21 47.46764 -112.64593 33986 ft 403 kts 275°
2026-05-07 17:22 47.46841 -112.72888 33974 ft 404 kts 275°
2026-05-07 17:22 47.46922 -112.81150 33990 ft 404 kts 275°
2026-05-07 17:23 47.46990 -112.89459 33986 ft 404 kts 275°
2026-05-07 17:23 47.47050 -112.97761 33992 ft 404 kts 275°
2026-05-07 17:24 47.47102 -113.06071 33990 ft 404 kts 275°
2026-05-07 17:24 47.47150 -113.14402 33965 ft 406 kts 274°
2026-05-07 17:25 47.47193 -113.22762 33983 ft 406 kts 274°
2026-05-07 17:25 47.47221 -113.31059 33996 ft 406 kts 274°
2026-05-07 17:26 47.47246 -113.39410 34006 ft 406 kts 274°
2026-05-07 17:26 47.47264 -113.47769 33992 ft 406 kts 274°
2026-05-07 17:27 47.47283 -113.56122 34002 ft 406 kts 274°
2026-05-07 17:27 47.47289 -113.64482 33991 ft 407 kts 274°
2026-05-07 17:28 47.47296 -113.72851 34001 ft 408 kts 274°
2026-05-07 17:28 47.47296 -113.81231 33998 ft 407 kts 274°
2026-05-07 17:29 47.47286 -113.89548 33994 ft 407 kts 274°
2026-05-07 17:29 47.47266 -113.97929 34001 ft 408 kts 274°
2026-05-07 17:30 47.47246 -114.06319 33982 ft 408 kts 274°
2026-05-07 17:30 47.47213 -114.14730 33995 ft 409 kts 274°
2026-05-07 17:31 47.47178 -114.23136 33976 ft 409 kts 274°
2026-05-07 17:31 47.47136 -114.31550 33984 ft 409 kts 274°
2026-05-07 17:32 47.47093 -114.39960 33966 ft 409 kts 274°
2026-05-07 17:32 47.47051 -114.46962 33963 ft 409 kts 274°
2026-05-07 17:33 47.46977 -114.56756 33938 ft 410 kts 274°
2026-05-07 17:33 47.46905 -114.65194 33946 ft 411 kts 274°
2026-05-07 17:34 47.46847 -114.72212 33961 ft 411 kts 275°
2026-05-07 17:34 47.46773 -114.80666 33945 ft 411 kts 275°
2026-05-07 17:35 47.46693 -114.89135 33931 ft 413 kts 274°
2026-05-07 17:35 47.46604 -114.97644 33904 ft 414 kts 275°
2026-05-07 17:36 47.46507 -115.06175 33913 ft 415 kts 275°
2026-05-07 17:36 47.46405 -115.14702 33920 ft 415 kts 274°
2026-05-07 17:37 47.46292 -115.23234 33923 ft 415 kts 274°
2026-05-07 17:37 47.46172 -115.31762 33918 ft 415 kts 274°
2026-05-07 17:38 47.46053 -115.40237 33917 ft 415 kts 274°
2026-05-07 17:38 47.45930 -115.48783 33911 ft 416 kts 274°
2026-05-07 17:39 47.45796 -115.57323 33913 ft 416 kts 274°
2026-05-07 17:39 47.45754 -115.65849 33918 ft 412 kts 279°
2026-05-07 17:40 47.46257 -115.74273 33928 ft 411 kts 281°
2026-05-07 17:40 47.46787 -115.82692 33898 ft 411 kts 281°
2026-05-07 17:41 47.47306 -115.91121 33939 ft 413 kts 281°
2026-05-07 17:41 47.47822 -115.99581 33950 ft 413 kts 281°
2026-05-07 17:42 47.48325 -116.08043 33979 ft 413 kts 281°
2026-05-07 17:42 47.48825 -116.16440 33974 ft 412 kts 281°
2026-05-07 17:43 47.49313 -116.24894 33999 ft 413 kts 281°
2026-05-07 17:43 47.49800 -116.33370 34015 ft 414 kts 280°
2026-05-07 17:44 47.50278 -116.41863 34003 ft 414 kts 280°
2026-05-07 17:44 47.50753 -116.50363 34039 ft 416 kts 281°
2026-05-07 17:45 47.51228 -116.58905 34041 ft 417 kts 281°
2026-05-07 17:45 47.51702 -116.67456 34066 ft 417 kts 281°
2026-05-07 17:46 47.52166 -116.76029 34071 ft 417 kts 281°
2026-05-07 17:46 47.52616 -116.84533 34050 ft 417 kts 280°
2026-05-07 17:47 47.53052 -116.93091 34075 ft 417 kts 280°
2026-05-07 17:47 47.53491 -117.01652 34078 ft 417 kts 280°
2026-05-07 17:48 47.53927 -117.10207 34065 ft 417 kts 280°
2026-05-07 17:48 47.54362 -117.18778 34069 ft 417 kts 280°
2026-05-07 17:49 47.54792 -117.27341 34074 ft 414 kts 280°
2026-05-07 17:49 47.55202 -117.35772 34023 ft 413 kts 279°
2026-05-07 17:50 47.55598 -117.44267 34061 ft 413 kts 279°
2026-05-07 17:50 47.55994 -117.52759 34068 ft 413 kts 279°
2026-05-07 17:51 47.56405 -117.61234 34064 ft 412 kts 280°
2026-05-07 17:51 47.57143 -117.69619 34057 ft 410 kts 283°
2026-05-07 17:52 47.57959 -117.77992 34060 ft 410 kts 283°
2026-05-07 17:52 47.58752 -117.86304 34043 ft 409 kts 283°
2026-05-07 17:53 47.59539 -117.94617 34040 ft 407 kts 283°
2026-05-07 17:53 47.60325 -118.02942 34035 ft 407 kts 283°
2026-05-07 17:54 47.61092 -118.11207 34023 ft 407 kts 283°
2026-05-07 17:54 47.61862 -118.19531 34010 ft 407 kts 283°
2026-05-07 17:55 47.62629 -118.27854 34003 ft 407 kts 283°
2026-05-07 17:55 47.63386 -118.36194 34005 ft 408 kts 283°
2026-05-07 17:56 47.64130 -118.44478 33997 ft 402 kts 282°
2026-05-07 17:56 47.64865 -118.52700 34007 ft 402 kts 282°
2026-05-07 17:57 47.65470 -118.59532 34009 ft 402 kts 282°
2026-05-07 17:57 47.66313 -118.69107 33996 ft 403 kts 282°
2026-05-07 17:58 47.67032 -118.77349 33994 ft 403 kts 282°
2026-05-07 17:58 47.67742 -118.85598 33997 ft 403 kts 282°
2026-05-07 17:59 47.68453 -118.93859 33958 ft 403 kts 282°
2026-05-07 17:59 47.69156 -119.02111 33987 ft 403 kts 282°
2026-05-07 18:00 47.69852 -119.10373 33990 ft 403 kts 281°
2026-05-07 18:00 47.70544 -119.18636 33993 ft 403 kts 281°
2026-05-07 18:01 47.71060 -119.25102 33992 ft 404 kts 281°
2026-05-07 18:01 47.71745 -119.33363 33998 ft 403 kts 281°
2026-05-07 18:02 47.72766 -119.45779 33968 ft 405 kts 281°
2026-05-07 18:03 47.73433 -119.54094 33996 ft 406 kts 281°
2026-05-07 18:03 47.74095 -119.62374 33999 ft 406 kts 281°
2026-05-07 18:04 47.74750 -119.70710 34000 ft 406 kts 280°
2026-05-07 18:04 47.75400 -119.79062 34009 ft 406 kts 280°
2026-05-07 18:05 47.76041 -119.87353 33305 ft 402 kts 280°
2026-05-07 18:05 47.76363 -119.91509 32529 ft 408 kts 281°
2026-05-07 18:05 47.76685 -119.95723 32172 ft 412 kts 280°
2026-05-07 18:05 47.77010 -119.99976 31878 ft 417 kts 280°
2026-05-07 18:06 47.77333 -120.04284 31622 ft 419 kts 280°
2026-05-07 18:06 47.77657 -120.08608 31363 ft 422 kts 280°
2026-05-07 18:06 47.77981 -120.12942 31121 ft 422 kts 280°
2026-05-07 18:06 47.78297 -120.17238 30893 ft 424 kts 280°
2026-05-07 18:07 47.78625 -120.21662 30655 ft 425 kts 280°
2026-05-07 18:07 47.78944 -120.25973 30418 ft 426 kts 280°
2026-05-07 18:07 47.79266 -120.30361 30182 ft 428 kts 280°
2026-05-07 18:07 47.79588 -120.34769 29914 ft 429 kts 280°
2026-05-07 18:08 47.79909 -120.39193 29641 ft 430 kts 279°
2026-05-07 18:08 47.80232 -120.43626 29363 ft 432 kts 279°
2026-05-07 18:08 47.80553 -120.48090 29098 ft 434 kts 279°
2026-05-07 18:08 47.80869 -120.52562 28832 ft 435 kts 279°
2026-05-07 18:09 47.81188 -120.57039 28472 ft 435 kts 279°
2026-05-07 18:09 47.81503 -120.61489 27607 ft 432 kts 279°
2026-05-07 18:09 47.81813 -120.65935 26615 ft 432 kts 279°
2026-05-07 18:09 47.82123 -120.70381 25647 ft 433 kts 279°
2026-05-07 18:10 47.82431 -120.74834 24795 ft 433 kts 278°
2026-05-07 18:10 47.82739 -120.79288 24068 ft 432 kts 278°
2026-05-07 18:10 47.83046 -120.83730 23360 ft 430 kts 278°
2026-05-07 18:10 47.83342 -120.88088 22630 ft 427 kts 278°
2026-05-07 18:11 47.83645 -120.92558 22137 ft 436 kts 278°
2026-05-07 18:11 47.83851 -120.95572 21882 ft 446 kts 278°
2026-05-07 18:11 47.84249 -121.01605 21329 ft 435 kts 277°
2026-05-07 18:11 47.84540 -121.06039 20776 ft 427 kts 277°
2026-05-07 18:12 47.84831 -121.10403 20172 ft 420 kts 277°
2026-05-07 18:12 47.85117 -121.14718 19569 ft 418 kts 277°
2026-05-07 18:12 47.85401 -121.19030 18968 ft 416 kts 277°
2026-05-07 18:12 47.85681 -121.23323 18362 ft 415 kts 277°
2026-05-07 18:13 47.85950 -121.27585 17647 ft 413 kts 277°
2026-05-07 18:13 47.86213 -121.31775 17026 ft 411 kts 277°
2026-05-07 18:13 47.86479 -121.35997 16452 ft 407 kts 277°
2026-05-07 18:13 47.86740 -121.40172 15890 ft 404 kts 276°
2026-05-07 18:14 47.86996 -121.44319 15363 ft 401 kts 276°
2026-05-07 18:14 47.87252 -121.48444 14905 ft 398 kts 276°
2026-05-07 18:14 47.87504 -121.52520 14412 ft 391 kts 276°
2026-05-07 18:14 47.87751 -121.56505 13936 ft 382 kts 276°
2026-05-07 18:15 47.87999 -121.60455 13412 ft 387 kts 276°
2026-05-07 18:15 47.88244 -121.64416 12906 ft 379 kts 276°
2026-05-07 18:15 47.88396 -121.68268 12602 ft 366 kts 268°
2026-05-07 18:15 47.87868 -121.71883 12356 ft 353 kts 248°
2026-05-07 18:16 47.86552 -121.74873 12160 ft 340 kts 226°
2026-05-07 18:16 47.84719 -121.76982 11980 ft 327 kts 215°
2026-05-07 18:16 47.82900 -121.78884 11806 ft 313 kts 218°
2026-05-07 18:16 47.81211 -121.80826 11628 ft 301 kts 220°
2026-05-07 18:17 47.79631 -121.82788 11274 ft 296 kts 221°
2026-05-07 18:17 47.78094 -121.84779 10866 ft 293 kts 221°
2026-05-07 18:17 47.76580 -121.86785 10448 ft 291 kts 221°
2026-05-07 18:17 47.75076 -121.88791 10040 ft 289 kts 221°
2026-05-07 18:18 47.73588 -121.90783 9566 ft 288 kts 222°
2026-05-07 18:18 47.72096 -121.92787 9054 ft 289 kts 222°
2026-05-07 18:18 47.70609 -121.94784 8600 ft 288 kts 222°
2026-05-07 18:18 47.69128 -121.96773 8175 ft 286 kts 222°
2026-05-07 18:19 47.67656 -121.98741 7765 ft 283 kts 222°
2026-05-07 18:19 47.66207 -122.00687 7480 ft 277 kts 222°
2026-05-07 18:19 47.64800 -122.02575 7199 ft 270 kts 222°
2026-05-07 18:19 47.63414 -122.04435 6843 ft 268 kts 222°
2026-05-07 18:20 47.62052 -122.06261 6511 ft 264 kts 222°
2026-05-07 18:20 47.60716 -122.08051 6270 ft 253 kts 222°
2026-05-07 18:20 47.59439 -122.09761 6087 ft 241 kts 222°
2026-05-07 18:20 47.58223 -122.11389 5893 ft 231 kts 222°
2026-05-07 18:21 47.57041 -122.12969 5566 ft 227 kts 222°
2026-05-07 18:21 47.55881 -122.14521 5186 ft 223 kts 222°
2026-05-07 18:21 47.55155 -122.15594 4874 ft 223 kts 234°
2026-05-07 18:21 47.54685 -122.17734 4350 ft 221 kts 269°
2026-05-07 18:22 47.54688 -122.19999 3917 ft 220 kts 272°
2026-05-07 18:22 47.54897 -122.21494 3611 ft 220 kts 292°
2026-05-07 18:22 47.55599 -122.24292 3050 ft 219 kts 285°
2026-05-07 18:22 47.55985 -122.26462 2624 ft 217 kts 285°
2026-05-07 18:23 47.56180 -122.28655 2192 ft 215 kts 264°
2026-05-07 18:23 47.55576 -122.30556 1997 ft 199 kts 224°
2026-05-07 18:23 47.54453 -122.31523 1969 ft 182 kts 197°
2026-05-07 18:23 47.53116 -122.31786 1880 ft 215 kts 183°
2026-05-07 18:24 47.51635 -122.31735 1589 ft 211 kts 182°
2026-05-07 18:24 47.50232 -122.31735 1320 ft 195 kts 177°
2026-05-07 18:24 47.48979 -122.31783 1005 ft 165 kts 179°
2026-05-07 18:24 47.47918 -122.31756 733 ft 141 kts 182°
2026-05-07 18:25 47.46943 -122.31789 543 ft 140 kts 182°
2026-05-07 18:25 47.45979 -122.31785 427 ft 134 kts 182°
2026-05-07 18:25 47.45203 -122.31792 401 ft 73 kts 181°
2026-05-07 18:25 47.44908 -122.31751 394 ft 27 kts 169°
2026-05-07 18:26 47.44736 -122.31622 389 ft 28 kts 146°
2026-05-07 18:26 47.44641 -122.31373 390 ft 27 kts 94°
2026-05-07 18:26 47.44636 -122.31148 398 ft 17 kts 112°
2026-05-07 18:26 47.44561 -122.31011 397 ft 18 kts 154°
2026-05-07 18:27 47.44444 -122.30927 395 ft 19 kts 154°
2026-05-07 18:27 47.44360 -122.30812 399 ft 16 kts 115°
2026-05-07 18:27 47.44336 -122.30644 392 ft 18 kts 134°
2026-05-07 18:27 47.44214 -122.30642 391 ft 19 kts 175°
2026-05-07 18:28 47.44080 -122.30634 391 ft 20 kts 182°
2026-05-07 18:28 47.43994 -122.30580 390 ft 13 kts 94°
2026-05-07 18:28 47.43991 -122.30434 391 ft 15 kts 91°
2026-05-07 18:28 47.44018 -122.30275 393 ft 18 kts 57°
2026-05-07 18:29 47.44073 -122.30153 394 ft 10 kts 45°
2026-05-07 18:29 47.44105 -122.30108 396 ft 3 kts 44°
2026-05-07 18:29 47.44113 -122.30095 397 ft 0 kts 44°